Location: Unspecified
(0.0000°N, 0.0000°E)
Time: 11:46:45
(UTC+00:00)

Tiangong - Pass Details

Date: 08 February 2026
Orbit: 386 x 391 km, 41.5° (Epoch: 15 February)

Event Time Altitude Azimuth Distance (km) Brightness Sun altitude
Exits shadow 04:06:46 12° 104° (ESE) 1,326 1.4 -30.6°
Drops below altitude 10° 04:06:59 10° 106° (ESE) 1,404 1.6 -30.6°
Sets 04:09:16 0° 118° (ESE) 2,274 2.9 -30.0°
